STARLINK-6160

Satellite information

Favourite Embed

Satellite Type and Status

PAYLOADIN ORBIT

Key statistics

Satellite STARLINK-6160 at a glance.

Uptime

960

Days in orbit

Revolutions

≈ 15.0

Per day

Orbit

LEO

Low Earth Orbit

Inclination

43.0

Latest

Satellite identification and parameters

Extended collection of information and parameters for STARLINK-6160.

Object identification

Identified? True

Debris? False

Object name: STARLINK-6160

International designator: 2023-061J

Object number (NORAD): 56382

Object ID (CCSDS): 56382

Country: UNITED STATES OF AMERICA (US)

Current information (Y/N): Y

RCS size: LARGE

Orbital parameters

Period: 95.838 minutes

Inclination: 43.0018 deg

SMA: 6937.229 km

Apoapsis: 559.747 km

Periapsis: 558.441 km

RAAN: 278.4848 deg

Eccentricy: 0.00009413

Argument of periapsis: 276.1692 deg

Mean anomaly: 83.9043 deg

Mean motion: 15.02531962 rev/day

Mean motion (dot): -0.0000029 rev/day2

B* drag term: -0.000006385026 1/REarth

Two-line elements (TLE)

Creation date: Dec. 18, 2025, 8:02 p.m.

Reference frame: TEME

Reference center: EARTH

Epoch: Dec. 18, 2025, 12:06 p.m. UTC

TLE line 0: 0 STARLINK-6160

TLE line 1: 1 56382U 23061J 25352.50433316 -.00000290 00000-0 -63850-5 0 9998

TLE line 2: 2 56382 43.0018 278.4848 0000941 276.1692 83.9043 15.02531962144549

Live tracking on map

Real-time ground track for satellite STARLINK-6160.

In-orbit conjunctions

There are no conjunctions computed for STARLINK-6160, at the moment. Check back to stay up to date, as we update our databases every day.

Go to all conjunctions

Associated space launch

A batch of 56 satellites for Starlink mega-constellation - SpaceX's project for space-based Internet communication system.

STARLINK-6160 was lifted into orbit during the mission ‘Falcon 9 Block 5 | Starlink Group 5-6’, on board a Falcon 9 space rocket.

The launch took place on May 4, 2023, 7:31 a.m. from Space Launch Complex 40.

For more information about the launch, click the button.

Launch to space Falcon 9 Block 5 | Starlink Group 5-6
Falcon 9 Block 5 | Starlink Group 5-6

Agency: N/A

Status: Launch Successful

Launch date: May 4, 2023, 7:31 a.m. UTC

Rocket: Falcon 9

Launch pad: Space Launch Complex 40

Location: Cape Canaveral SFS, FL, USA

...

Latest news about this satellite

News about space launch
SpaceX aces Falcon 9 launch, delivers 56 Starlink satellites to orbit

On a clear night and under a bright Moon, SpaceX launched the Falcon 9 to successfully deliver 56 version 1.5 Starlink satellites...

News about space launch
SpaceX readies for a busy month, first up, a Falcon 9 and Starlink satellites

SpaceX is set to begin its potentially busy May launch cadence with the launch of 56 V1.5 Starlink satellites from LC-40 at...


Newsletter sign-up

Weekly statistics, charts and insights to help you stay on top of the space industry.